Location: Erlenbrunn
(49.1717°N, 7.6142°E)
Time: 05:29:46
(UTC+00:00)

USA 267 - Pass Details

Date: 25 November 2020
Orbit: 1100 x 1107 km, 123.0° (Epoch: 18 January)

Event Time Altitude Azimuth Distance (km) Brightness Sun altitude
Exits shadow 18:24:49 34° 150° (SSE) 1,724 4.0 -26.7°
Maximum altitude 18:27:46 65° 219° (SW) 1,207 3.5 -27.2°
Drops below altitude 10° 18:34:17 10° 301° (WNW) 2,968 6.2 -28.2°
Sets 18:36:48 0° 305° (NW) 3,930 7.0 -28.6°
